When you browse on this site, cookies collect data to enhance your experience and personalize the content and advertising you see.
Visit our Privacy Policy to learn more. By continuing to use the site, you agree to this use of cookies and data.

Meteo pe oră la Pochaev

Astăzi, 4 Iulie, Sâmbătă

Timp Temperatura Precipitaţii Vânt Presiune Umiditate
00:00 +18°C° 0 mm 3 m/s 729 mmHg 97%
01:00 +18°C° 0 mm 3 m/s 729 mmHg 97%
02:00 +17°C° 0 mm 3 m/s 729 mmHg 98%
03:00 +17°C° 0 mm 3 m/s 729 mmHg 98%
04:00 +17°C° 0 mm 2 m/s 729 mmHg 98%
05:00 +17°C° 0 mm 2 m/s 729 mmHg 97%
06:00 +18°C° 0 mm 2 m/s 730 mmHg 94%
07:00 +19°C° 0 mm 2 m/s 730 mmHg 91%
08:00 +20°C° 0 mm 2 m/s 731 mmHg 87%
09:00 +20°C° 0 mm 3 m/s 731 mmHg 86%
10:00 +21°C° 0 mm 3 m/s 731 mmHg 85%
11:00 +21°C° 0 mm 4 m/s 731 mmHg 83%
12:00 +22°C° 0.1 mm 4 m/s 731 mmHg 80%
13:00 +22°C° 0.1 mm 4 m/s 731 mmHg 77%
14:00 +23°C° 0.1 mm 4 m/s 731 mmHg 74%
15:00 +24°C° 0 mm 3 m/s 731 mmHg 74%
16:00 +24°C° 0 mm 3 m/s 731 mmHg 74%
17:00 +24°C° 0 mm 3 m/s 730 mmHg 75%
18:00 +22°C° 0.1 mm 3 m/s 730 mmHg 79%
19:00 +21°C° 0.1 mm 2 m/s 730 mmHg 83%
20:00 +20°C° 0.1 mm 2 m/s 730 mmHg 87%
21:00 +19°C° 0 mm 2 m/s 730 mmHg 88%
22:00 +18°C° 0 mm 2 m/s 730 mmHg 90%
23:00 +17°C° 0 mm 2 m/s 731 mmHg 91%

Mâine, 5 Iulie, Duminică

Timp Temperatura Precipitaţii Vânt Presiune Umiditate
00:00 +17°C° 0 mm 2 m/s 731 mmHg 92%
01:00 +16°C° 0 mm 1 m/s 731 mmHg 92%
02:00 +16°C° 0 mm 1 m/s 731 mmHg 92%
03:00 +16°C° 0 mm 1 m/s 731 mmHg 92%
04:00 +16°C° 0 mm 1 m/s 730 mmHg 92%
05:00 +16°C° 0 mm 1 m/s 730 mmHg 92%
06:00 +18°C° 0 mm 1 m/s 730 mmHg 88%
07:00 +20°C° 0 mm 1 m/s 731 mmHg 84%
08:00 +21°C° 0 mm 1 m/s 731 mmHg 80%
09:00 +21°C° 0 mm 2 m/s 731 mmHg 75%
10:00 +23°C° 0 mm 2 m/s 731 mmHg 70%
11:00 +24°C° 0 mm 2 m/s 731 mmHg 65%
12:00 +25°C° 0 mm 2 m/s 731 mmHg 64%
13:00 +25°C° 0 mm 2 m/s 731 mmHg 62%
14:00 +25°C° 0 mm 2 m/s 731 mmHg 61%
15:00 +25°C° 0 mm 2 m/s 730 mmHg 62%
16:00 +25°C° 0 mm 2 m/s 730 mmHg 62%
17:00 +25°C° 0 mm 1 m/s 730 mmHg 63%
18:00 +24°C° 0 mm 1 m/s 730 mmHg 68%
19:00 +23°C° 0 mm 1 m/s 730 mmHg 72%
20:00 +19°C° 0 mm 0 m/s 730 mmHg 76%
21:00 +20°C° 0 mm 1 m/s 730 mmHg 78%
22:00 +20°C° 0 mm 1 m/s 730 mmHg 80%
23:00 +19°C° 0 mm 1 m/s 730 mmHg 81%

Poimâine, 6 Iulie, Luni

Timp Temperatura Precipitaţii Vânt Presiune Umiditate
00:00 +19°C° 0 mm 1 m/s 729 mmHg 84%
01:00 +18°C° 0 mm 1 m/s 729 mmHg 86%
02:00 +18°C° 0 mm 1 m/s 729 mmHg 88%
03:00 +18°C° 0 mm 1 m/s 729 mmHg 89%
04:00 +17°C° 0 mm 2 m/s 729 mmHg 90%
05:00 +17°C° 0 mm 2 m/s 728 mmHg 91%
06:00 +18°C° 0 mm 2 m/s 728 mmHg 87%
07:00 +20°C° 0 mm 2 m/s 729 mmHg 83%
08:00 +23°C° 0 mm 2 m/s 729 mmHg 80%
09:00 +24°C° 0 mm 2 m/s 729 mmHg 76%
10:00 +25°C° 0 mm 2 m/s 728 mmHg 72%
11:00 +26°C° 0 mm 2 m/s 728 mmHg 68%
12:00 +26°C° 0 mm 2 m/s 728 mmHg 67%
13:00 +27°C° 0 mm 2 m/s 727 mmHg 66%
14:00 +27°C° 0 mm 3 m/s 727 mmHg 66%
15:00 +27°C° 0 mm 2 m/s 727 mmHg 66%
16:00 +27°C° 0 mm 2 m/s 726 mmHg 67%
17:00 +27°C° 0 mm 2 m/s 726 mmHg 68%
18:00 +26°C° 0.1 mm 2 m/s 726 mmHg 73%
19:00 +24°C° 0.1 mm 2 m/s 725 mmHg 77%
20:00 +23°C° 0.1 mm 2 m/s 725 mmHg 82%
21:00 +22°C° 1.2 mm 1 m/s 725 mmHg 85%
22:00 +21°C° 1.2 mm 1 m/s 725 mmHg 87%
23:00 +21°C° 1.2 mm 1 m/s 725 mmHg 89%

7 Iulie, Marţi

Timp Temperatura Precipitaţii Vânt Presiune Umiditate
00:00 +20°C° 1 mm 1 m/s 725 mmHg 91%
01:00 +19°C° 1 mm 2 m/s 725 mmHg 93%
02:00 +18°C° 1 mm 2 m/s 725 mmHg 96%
03:00 +18°C° 0.6 mm 3 m/s 725 mmHg 96%
04:00 +18°C° 0.6 mm 4 m/s 725 mmHg 96%
05:00 +17°C° 0.6 mm 5 m/s 725 mmHg 97%
06:00 +17°C° 0.4 mm 5 m/s 725 mmHg 96%
07:00 +17°C° 0.4 mm 5 m/s 725 mmHg 95%
08:00 +17°C° 0.4 mm 5 m/s 726 mmHg 94%
09:00 +16°C° 2.6 mm 6 m/s 726 mmHg 94%
10:00 +15°C° 2.6 mm 7 m/s 726 mmHg 95%
11:00 +15°C° 2.6 mm 8 m/s 726 mmHg 95%
12:00 +13°C° 1 mm 8 m/s 726 mmHg 92%
13:00 +13°C° 1 mm 8 m/s 726 mmHg 90%
14:00 +13°C° 1 mm 8 m/s 726 mmHg 88%
15:00 +12°C° 0.2 mm 7 m/s 727 mmHg 88%
16:00 +12°C° 0.2 mm 7 m/s 727 mmHg 89%
17:00 +11°C° 0.2 mm 6 m/s 727 mmHg 89%
18:00 +12°C° 0.1 mm 5 m/s 727 mmHg 89%
19:00 +10°C° 0.1 mm 5 m/s 727 mmHg 89%
20:00 +11°C° 0.1 mm 4 m/s 727 mmHg 89%
21:00 +11°C° 0.1 mm 4 m/s 727 mmHg 91%
22:00 +11°C° 0.1 mm 4 m/s 728 mmHg 93%
23:00 +12°C° 0.1 mm 4 m/s 728 mmHg 94%

8 Iulie, Miercuri

Timp Temperatura Precipitaţii Vânt Presiune Umiditate
00:00 +12°C° 0.3 mm 4 m/s 728 mmHg 94%
01:00 +12°C° 0.3 mm 4 m/s 728 mmHg 93%
02:00 +12°C° 0.3 mm 5 m/s 728 mmHg 92%
03:00 +10°C° 0.2 mm 5 m/s 728 mmHg 92%
04:00 +10°C° 0.2 mm 5 m/s 729 mmHg 93%
05:00 +10°C° 0.2 mm 5 m/s 729 mmHg 93%
06:00 +10°C° 0 mm 5 m/s 729 mmHg 89%
07:00 +12°C° 0 mm 5 m/s 730 mmHg 86%
08:00 +13°C° 0 mm 5 m/s 730 mmHg 83%
09:00 +14°C° 0.1 mm 6 m/s 730 mmHg 78%
10:00 +15°C° 0.1 mm 6 m/s 731 mmHg 73%
11:00 +16°C° 0.1 mm 6 m/s 731 mmHg 68%
12:00 +16°C° 0.1 mm 6 m/s 731 mmHg 68%
13:00 +17°C° 0.1 mm 6 m/s 731 mmHg 68%
14:00 +17°C° 0.1 mm 6 m/s 731 mmHg 67%
15:00 +17°C° 0.1 mm 6 m/s 731 mmHg 69%
16:00 +17°C° 0.1 mm 6 m/s 731 mmHg 70%
17:00 +17°C° 0.1 mm 6 m/s 731 mmHg 72%
18:00 +16°C° 0 mm 5 m/s 731 mmHg 76%
19:00 +15°C° 0 mm 4 m/s 731 mmHg 81%
20:00 +14°C° 0 mm 3 m/s 731 mmHg 86%
21:00 +13°C° 0 mm 3 m/s 731 mmHg 88%
22:00 +12°C° 0 mm 3 m/s 731 mmHg 90%
23:00 +11°C° 0 mm 3 m/s 732 mmHg 92%

9 Iulie, Joi

Timp Temperatura Precipitaţii Vânt Presiune Umiditate
00:00 +11°C° 0 mm 3 m/s 732 mmHg 92%
01:00 +11°C° 0 mm 3 m/s 732 mmHg 92%
02:00 +10°C° 0 mm 3 m/s 732 mmHg 92%
03:00 +10°C° 0 mm 3 m/s 732 mmHg 92%
04:00 +10°C° 0 mm 3 m/s 732 mmHg 92%
05:00 +10°C° 0 mm 2 m/s 732 mmHg 91%
06:00 +12°C° 0 mm 3 m/s 732 mmHg 87%
07:00 +13°C° 0 mm 3 m/s 732 mmHg 82%
08:00 +16°C° 0 mm 3 m/s 732 mmHg 77%
09:00 +18°C° 0 mm 3 m/s 733 mmHg 74%
10:00 +19°C° 0 mm 3 m/s 733 mmHg 70%
11:00 +20°C° 0 mm 4 m/s 733 mmHg 66%
12:00 +21°C° 0 mm 3 m/s 733 mmHg 65%
13:00 +21°C° 0 mm 3 m/s 733 mmHg 64%
14:00 +22°C° 0 mm 3 m/s 732 mmHg 62%
15:00 +22°C° 0 mm 3 m/s 732 mmHg 64%
16:00 +22°C° 0 mm 3 m/s 732 mmHg 65%
17:00 +22°C° 0 mm 3 m/s 732 mmHg 66%
18:00 +21°C° 0 mm 2 m/s 732 mmHg 71%
19:00 +20°C° 0 mm 2 m/s 732 mmHg 76%
20:00 +18°C° 0 mm 2 m/s 731 mmHg 81%
21:00 +17°C° 0 mm 2 m/s 731 mmHg 83%
22:00 +17°C° 0 mm 2 m/s 732 mmHg 85%
23:00 +16°C° 0 mm 3 m/s 732 mmHg 87%
Arată mai mult